Location: Newark
(45.8667°N, 9.7333°E)
Time: 02:12:28
(UTC+00:00)

ITAMSAT 1 - Pass Details

Date: 01 March 2020
Orbit: 784 x 796 km, 98.9° (Epoch: 08 April)

Event Time Altitude Azimuth Distance (km) Brightness Sun altitude
Rises 04:03:52 0° 27° (NNE) 3,310 11.4 -20.8°
Reaches altitude 10° 04:06:45 10° 43° (NE) 2,376 10.9 -20.3°
Maximum altitude 04:10:45 22° 93° (E) 1,694 10.2 -19.7°
Drops below altitude 10° 04:14:43 10° 142° (SE) 2,362 10.5 -19.0°
Sets 04:17:33 0° 158° (SSE) 3,286 11.1 -18.5°
